| time (UTC) | temp F | wind direction | speed MPH | gust MPH | rain 1hr in | rain 24hr in | rain mn in | humidity % | barometer mb |
| 20260508121604 | 37 | 0.0 | 0.0 | 0.00 | 0.01 | 0.00 | 97 | 1017.7 | |
| 20260508120108 | 36 | 0.0 | 0.0 | 0.00 | 0.01 | 0.00 | 96 | 1017.6 | |
| 20260508114601 | 35 | 0.0 | 0.0 | 0.00 | 0.01 | 0.00 | 96 | 1017.6 | |
| 20260508113106 | 34 | 0.0 | 0.0 | 0.00 | 0.01 | 0.00 | 95 | 1017.5 | |
| 20260508111556 | 33 | 0.0 | 0.0 | 0.00 | 0.01 | 0.00 | 95 | 1017.3 | |
| 20260508110106 | 33 | 0.0 | 0.0 | 0.00 | 0.01 | 0.00 | 95 | 1017.1 | |
| 20260508104556 | 33 | 0.0 | 0.0 | 0.00 | 0.01 | 0.00 | 95 | 1017.0 | |
| 20260508103107 | 33 | 0.0 | 0.0 | 0.00 | 0.01 | 0.00 | 94 | 1017.0 | |
| 20260508101556 | 33 | 0.0 | 0.0 | 0.00 | 0.01 | 0.00 | 94 | 1016.9 | |
| 20260508100056 | 33 | 0.0 | 0.0 | 0.00 | 0.01 | 0.00 | 94 | 1016.7 | |
| 20260508094623 | 33 | 0.0 | 0.0 | 0.00 | 0.01 | 0.00 | 94 | 1016.7 | |
| 20260508093103 | 34 | 0.0 | 0.0 | 0.00 | 0.01 | 0.00 | 94 | 1016.5 | |
| 20260508091611 | 34 | 0.0 | 0.0 | 0.00 | 0.01 | 0.00 | 94 | 1016.4 | |
| 20260508084559 | 34 | 0.0 | 0.0 | 0.00 | 0.01 | 0.00 | 94 | 1016.3 | |
| 20260508083100 | 35 | 0.0 | 0.0 | 0.00 | 0.01 | 0.00 | 94 | 1016.3 | |
| 20260508081601 | 35 | 0.0 | 0.0 | 0.00 | 0.01 | 0.00 | 93 | 1016.2 | |
| 20260508080053 | 35 | 0.0 | 0.0 | 0.00 | 0.01 | 0.00 | 94 | 1016.1 | |
| 20260508074554 | 35 | 0.0 | 0.0 | 0.00 | 0.02 | 0.00 | 93 | 1016.3 | |
| 20260508073052 | 36 | 0.0 | 0.0 | 0.00 | 0.02 | 0.00 | 93 | 1016.1 | |
| 20260508071551 | 36 | 0.0 | 0.0 | 0.00 | 0.02 | 0.00 | 93 | 1015.9 | |
| 20260508070056 | 37 | 0.0 | 0.0 | 0.00 | 0.02 | 0.00 | 92 | 1015.8 | |
| 20260508064555 | 37 | 0.0 | 0.0 | 0.00 | 0.02 | 0.00 | 93 | 1015.9 | |
| 20260508063103 | 37 | 0.0 | 0.0 | 0.00 | 0.02 | 0.00 | 92 | 1016.0 | |
| 20260508061551 | 37 | 0.0 | 0.0 | 0.00 | 0.02 | 0.00 | 92 | 1016.2 | |
| 20260508060055 | 38 | 0.0 | 0.0 | 0.00 | 0.02 | 0.00 | 91 | 1016.2 | |
| 20260508054555 | 38 | 0.0 | 0.0 | 0.00 | 0.02 | 0.00 | 91 | 1016.3 | |
| 20260508053103 | 39 | 0.0 | 0.0 | 0.00 | 0.02 | 0.00 | 91 | 1016.2 | |
| 20260508051554 | 39 | 0.0 | 0.0 | 0.00 | 0.02 | 0.00 | 91 | 1016.1 | |
| 20260508050052 | 40 | 0.0 | 0.0 | 0.00 | 0.02 | 0.00 | 90 | 1015.9 | |
| 20260508044553 | 40 | 0.0 | 0.0 | 0.00 | 0.02 | 0.00 | 89 | 1015.7 | |
| 20260508043059 | 41 | 0.0 | 0.0 | 0.00 | 0.02 | 0.00 | 89 | 1015.6 | |
| 20260508041552 | 42 | 0.0 | 0.0 | 0.00 | 0.02 | 0.00 | 87 | 1015.6 | |
| 20260508040056 | 43 | 0.0 | 0.0 | 0.00 | 0.02 | 0.00 | 86 | 1015.6 | |
| 20260508034558 | 43 | 0.0 | 0.0 | 0.00 | 0.02 | 0.02 | 86 | 1015.3 | |
| 20260508033053 | 43 | 0.0 | 0.0 | 0.00 | 0.02 | 0.02 | 86 | 1015.3 | |
| 20260508031556 | 44 | 0.0 | 0.0 | 0.00 | 0.02 | 0.02 | 85 | 1015.3 | |
| 20260508030056 | 45 | 0.0 | 0.0 | 0.00 | 0.02 | 0.02 | 83 | 1015.2 | |
| 20260508024552 | 45 | 0.0 | 0.0 | 0.00 | 0.04 | 0.02 | 82 | 1015.0 | |
| 20260508023055 | 46 | 0.0 | 0.0 | 0.00 | 0.04 | 0.02 | 80 | 1014.8 | |
| 20260508021559 | 46 | 0.0 | 0.0 | 0.00 | 0.04 | 0.02 | 80 | 1014.6 | |
| 20260508014551 | 47 | 0.0 | 0.0 | 0.00 | 0.05 | 0.02 | 79 | 1014.1 | |
| 20260508013058 | 48 | 0.0 | 0.0 | 0.00 | 0.05 | 0.02 | 76 | 1013.8 | |
| 20260508011558 | 49 | 0.0 | 0.0 | 0.00 | 0.05 | 0.02 | 74 | 1013.8 | |
| 20260508010054 | 50 | 0.0 | 0.0 | 0.00 | 0.05 | 0.02 | 72 | 1013.7 | |
| 20260508004556 | 50 | 0.0 | 0.0 | 0.00 | 0.12 | 0.02 | 71 | 1013.6 | |
| 20260508003055 | 52 | 0.0 | 0.0 | 0.00 | 0.12 | 0.02 | 70 | 1013.3 | |
| 20260508001613 | 52 | 0.0 | 0.0 | 0.00 | 0.12 | 0.02 | 68 | 1013.3 | |
| 20260508000056 | 53 | 0.0 | 0.0 | 0.00 | 0.12 | 0.02 | 68 | 1013.3 | |
| 20260507234557 | 53 | 0.0 | 0.0 | 0.00 | 0.12 | 0.02 | 67 | 1013.2 | |
| 20260507233055 | 53 | 0.0 | 0.0 | 0.00 | 0.12 | 0.02 | 66 | 1013.3 | |
| 20260507231552 | 54 | 0.0 | 0.0 | 0.00 | 0.12 | 0.02 | 67 | 1013.1 | |
| 20260507230056 | 54 | 0.0 | 0.0 | 0.00 | 0.12 | 0.02 | 66 | 1013.1 | |
| 20260507224600 | 55 | 0.0 | 0.0 | 0.00 | 0.12 | 0.02 | 65 | 1013.1 | |
| 20260507223050 | 55 | 0.0 | 0.0 | 0.00 | 0.12 | 0.02 | 64 | 1012.9 | |
| 20260507221642 | 56 | 0.0 | 0.0 | 0.00 | 0.12 | 0.02 | 65 | 1013.0 | |
| 20260507220101 | 56 | 0.0 | 0.0 | 0.00 | 0.12 | 0.02 | 64 | 1012.8 | |
| 20260507214604 | 54 | 0.0 | 0.0 | 0.00 | 0.12 | 0.02 | 65 | 1012.5 | |
| 20260507213058 | 54 | 0.0 | 0.0 | 0.00 | 0.12 | 0.02 | 67 | 1012.5 | |
| 20260507211555 | 53 | 0.0 | 0.0 | 0.00 | 0.12 | 0.02 | 69 | 1012.4 | |
| 20260507210059 | 54 | 0.0 | 0.0 | 0.00 | 0.12 | 0.02 | 67 | 1012.1 | |
| 20260507204558 | 55 | 0.0 | 0.0 | 0.00 | 0.12 | 0.02 | 65 | 1012.2 | |
| 20260507203100 | 54 | 0.0 | 0.0 | 0.00 | 0.12 | 0.02 | 68 | 1012.1 | |
| 20260507201600 | 53 | 0.0 | 0.0 | 0.00 | 0.12 | 0.02 | 71 | 1012.4 | |
| 20260507200109 | 54 | 0.0 | 0.0 | 0.00 | 0.12 | 0.02 | 70 | 1012.7 | |
| 20260507194557 | 54 | 0.0 | 0.0 | 0.00 | 0.12 | 0.02 | 71 | 1012.4 | |
| 20260507193056 | 54 | 0.0 | 0.0 | 0.00 | 0.12 | 0.02 | 71 | 1012.6 | |
| 20260507191558 | 54 | 0.0 | 0.0 | 0.00 | 0.12 | 0.02 | 70 | 1012.7 | |
| 20260507190057 | 53 | 0.0 | 0.0 | 0.00 | 0.12 | 0.02 | 73 | 1012.9 | |
| 20260507184603 | 53 | 0.0 | 0.0 | 0.00 | 0.12 | 0.02 | 70 | 1012.9 | |
| 20260507183051 | 53 | 0.0 | 0.0 | 0.00 | 0.12 | 0.02 | 70 | 1013.1 | |
| 20260507181600 | 53 | 0.0 | 0.0 | 0.00 | 0.12 | 0.02 | 72 | 1012.8 | |
| 20260507180057 | 54 | 0.0 | 0.0 | 0.00 | 0.12 | 0.02 | 72 | 1013.1 | |
| 20260507174556 | 54 | 0.0 | 0.0 | 0.00 | 0.12 | 0.02 | 72 | 1013.0 | |
| 20260507173056 | 54 | 0.0 | 0.0 | 0.00 | 0.12 | 0.02 | 72 | 1013.0 | |
| 20260507171601 | 53 | 0.0 | 0.0 | 0.00 | 0.12 | 0.02 | 72 | 1012.9 | |
| 20260507170059 | 53 | 0.0 | 0.0 | 0.00 | 0.12 | 0.02 | 71 | 1013.2 | |
| 20260507164557 | 52 | 0.0 | 0.0 | 0.00 | 0.16 | 0.02 | 76 | 1013.2 | |
| 20260507163057 | 51 | 0.0 | 0.0 | 0.00 | 0.16 | 0.02 | 75 | 1013.4 | |
| 20260507161556 | 51 | 0.0 | 0.0 | 0.00 | 0.16 | 0.02 | 80 | 1013.4 | |
| 20260507160055 | 50 | 0.0 | 0.0 | 0.00 | 0.16 | 0.02 | 80 | 1013.4 | |
| 20260507154604 | 49 | 0.0 | 0.0 | 0.00 | 0.17 | 0.02 | 82 | 1013.6 | |
| 20260507153101 | 48 | 0.0 | 0.0 | 0.00 | 0.17 | 0.02 | 84 | 1013.7 | |
| 20260507151556 | 48 | 0.0 | 0.0 | 0.00 | 0.17 | 0.02 | 88 | 1013.6 | |
| 20260507150055 | 47 | 0.0 | 0.0 | 0.00 | 0.17 | 0.02 | 89 | 1013.6 | |
| 20260507144552 | 47 | 0.0 | 0.0 | 0.00 | 0.18 | 0.02 | 91 | 1013.6 | |
| 20260507143053 | 46 | 0.0 | 0.0 | 0.00 | 0.18 | 0.02 | 90 | 1013.8 | |
| 20260507141552 | 46 | 0.0 | 0.0 | 0.00 | 0.18 | 0.02 | 92 | 1013.7 | |
| 20260507140054 | 46 | 0.0 | 0.0 | 0.00 | 0.18 | 0.02 | 92 | 1013.7 | |
| 20260507134555 | 45 | 0.0 | 0.0 | 0.00 | 0.22 | 0.02 | 93 | 1013.6 | |
| 20260507133057 | 45 | 0.0 | 0.0 | 0.00 | 0.22 | 0.02 | 94 | 1013.6 | |
| 20260507131601 | 46 | 0.0 | 0.0 | 0.01 | 0.22 | 0.02 | 95 | 1013.7 | |
| 20260507130107 | 46 | 0.0 | 0.0 | 0.01 | 0.22 | 0.02 | 95 | 1013.8 | |
| 20260507124556 | 46 | 0.0 | 0.0 | 0.01 | 0.29 | 0.02 | 95 | 1013.8 | |
| 20260507123053 | 46 | 0.0 | 0.0 | 0.01 | 0.29 | 0.02 | 95 | 1013.6 |